Regional Weather Roundup
Issued by NWS

Home | Current Version | Previous Version | Text Only | Print | Product List | Glossary Off
Versions: 1 2 3 4 5 6 7 8 9 10 11 12 13 14 15 16 17 18 19 20 21 22 23 24 25 26 27 28 29 30 31 32 33 34 35 36 37 38 39 40 41 42 43 44 45 46 47 48 49 50

000
ASUS43 KLSX 290807
RWRMO

WEATHER SUMMARY FOR MISSOURI
NATIONAL WEATHER SERVICE SPRINGFIELD MO
300 AM CDT SAT AUG 29 2015

NOTE: "FAIR" INDICATES FEW OR NO CLOUDS BELOW 12,000 FEET WITH NO
       SIGNIFICANT WEATHER AND/OR OBSTRUCTIONS TO VISIBILITY.
       CURRENT SKY AND/OR WEATHER CONDITIONS ARE NOT AVAILABLE FOR
       CHILLICOTHE AND FARMINGTON.

MOZ001>031-035>038-043-044-053-054-290900-
...NORTHERN AND WESTERN MISSOURI...

CITY           SKY/WX    TMP DP  RH WIND       PRES   REMARKS
KANSAS CTY INT CLOUDY    71  68  90 SW9       29.93S
KANSAS C DTWN  CLOUDY    73  69  87 SW8       29.91F
LEE`S SUMMIT   MOCLDY    71  67  87 SW8       29.94F
ST JOSEPH      MOCLDY    67  65  93 NW6       29.93S
CHILLICOTHE      N/A     70  68  93 CALM      29.94S
KIRKSVILLE     CLOUDY    68  63  84 S7        29.95F

$$
MOZ066>068-077>081-088>096-101>105-290900-
...SOUTHWEST MISSOURI...

CITY           SKY/WX    TMP DP  RH WIND       PRES   REMARKS
SPRINGFIELD    CLOUDY    71  60  68 S14       29.99F
JOPLIN         CLOUDY    71  63  75 S5        29.98R

$$
MOZ032>034-039>042-045>050-055>058-069>072-290900-
...CENTRAL MISSOURI...

CITY           SKY/WX    TMP DP  RH WIND       PRES   REMARKS
COLUMBIA       CLOUDY    69  63  81 SE10      29.98F
JEFFERSON CITY CLOUDY    72  61  68 E7        29.97F
ROLLA          MOCLDY    68  61  78 S9        30.00S
SEDALIA        CLOUDY    71  63  75 S8        29.96F
WHITEMAN AFB   PTCLDY    68  64  86 S8        29.94F
WARRENSBURG    MOCLDY    68  64  88 S5        29.94S
OSAGE BEACH    CLOUDY    70  59  68 SE5       29.98F

$$
MOZ051-052-059>065-290900-
...EAST CENTRAL MISSOURI...

CITY           SKY/WX    TMP DP  RH WIND       PRES   REMARKS
ST LOUIS INTL  NOT AVBL
SPIRIT OF STL  MOCLDY    70  64  81 NW3       30.02S
ST CHARLES     CLOUDY    69  66  90 SE5       30.02S

$$
MOZ072>076-082>087-097>100-106>115-290900-
...SOUTH CENTRAL AND SOUTHEAST MISSOURI...

CITY           SKY/WX    TMP DP  RH WIND       PRES   REMARKS
CAPE GIRARDEAU CLOUDY    69  66  90 CALM      30.02S
FARMINGTON     CLOUDY    68  63  83 CALM      30.05S
POPLAR BLUFF   CLOUDY    68  66  93 CALM      30.01R
WEST PLAINS    MOCLDY    69  61  75 S5        30.06S

$$


USA.gov is the U.S. government's official web portal to all federal, state and local government web resources and services.